Location: McDonald Observatory
(30.6717°N, 104.0221°W)
Time: 03:40:48
(UTC-05:00)

Daily predictions for brighter satellites

Satellite Brightness Start Highest point End
(mag) Time Altitude Azimuth Time Altitude Azimuth Time Altitude Azimuth
H-2A R/B 2.4 00:12:25 64° NW 00:12:25 64° NW 00:17:06 10° NNW
Cosmos 1937 Rocket 4.0 00:15:06 55° N 00:15:06 55° N 00:19:13 10° NNE
ATLAS 2AS CENTAUR R/B 3.3 00:16:57 49° E 00:16:57 49° E 00:23:17 10° NE
Cosmos 2322 4.5 00:10:26 10° NW 00:15:33 43° W 00:15:33 43° W
Cosmos 2237 Rocket 3.7 00:15:34 10° N 00:19:39 26° NE 00:19:39 26° NE
Nadezhda 1 Rocket 4.1 00:27:01 10° N 00:32:17 69° N 00:32:17 69° N
Cosmos 2360 Rocket 3.7 00:30:12 10° NW 00:34:21 27° W 00:34:21 27° W
Cosmos 1709 Rocket 4.4 00:47:08 56° NNE 00:47:08 56° NNE 00:51:53 10° N
ATLAS 3B R/B 4.4 00:41:46 10° N 00:46:48 21° NE 00:48:24 19° ENE
Cosmos 2227 Rocket 3.0 00:54:43 47° NNW 00:54:43 47° NNW 00:59:03 10° N
Cosmos 2333 Rocket 3.1 00:57:12 10° NNW 01:01:13 46° N 01:01:13 46° N
SL-16 R/B 3.8 01:05:47 10° N 01:09:30 28° NE 01:09:30 28° NE
SeaSat 1 4.2 01:21:09 29° NNW 01:21:09 29° NNW 01:23:33 10° NNW
Cosmos 2297 Rocket 3.4 01:22:46 39° NNW 01:22:46 39° NNW 01:26:46 10° N
COSMOS 2455 4.1 01:17:04 10° N 01:21:35 35° NE 01:21:35 35° NE
Cosmos 2219 Rocket 4.0 01:33:36 10° NW 01:36:07 24° WNW 01:36:07 24° WNW
CZ-2C R/B 4.4 01:40:04 10° NNE 01:42:21 25° NE 01:42:21 25° NE
Cosmos 2237 Rocket 4.2 01:59:17 10° NW 02:01:28 21° WNW 02:01:28 21° WNW
ATLAS 2AS CENTAUR R/B 4.4 02:04:19 24° W 02:07:00 30° NW 02:13:50 10° N
Lacrosse 4 Rocket 4.3 02:21:37 10° NNW 02:22:17 14° NNW 02:22:17 14° NNW
CZ-4C R/B 4.5 02:28:53 10° N 02:35:01 28° NE 02:40:36 13° ESE
USA 238 DEB 4.1 02:30:47 10° NNW 02:37:40 56° ENE 02:37:40 56° ENE
USA 238 4.2 02:30:53 10° NNW 02:37:46 55° ENE 02:37:48 55° ENE
ATLAS 3B R/B 3.5 02:31:17 10° NW 02:35:37 40° NW 02:35:37 40° NW
Cosmos 2263 Rocket 3.4 02:50:00 36° NE 02:50:00 36° NE 02:53:35 10° NNE
H-2A R/B 4.1 02:56:59 36° ESE 02:56:59 36° ESE 03:08:28 10° ESE
SL-16 R/B 4.4 02:49:58 10° NW 02:51:21 16° NW 02:51:21 16° NW
USA 234 4.5 02:51:35 10° ESE 02:57:28 37° NE 03:03:21 10° NNW
Cosmos 1607 4.2 03:10:29 10° NNW 03:15:48 62° NNE 03:15:48 62° NNE
Cosmos 1943 3.8 03:16:00 10° NNW 03:20:39 54° NNE 03:20:39 54° NNE
Cosmos 2056 Rocket 4.5 03:23:52 43° ENE 03:23:52 43° ENE 03:27:44 10° NNE
H-2A R/B 3.9 02:32:32 10° W 03:24:34 58° SW 03:24:34 58° SW
NOSS 3-4 (A) 3.9 03:28:23 56° NW 03:28:23 56° NW 03:34:27 10° NNE
NOSS 3-4 (C) 3.8 03:28:29 57° NW 03:28:29 57° NW 03:34:32 10° NNE
SL-08 R/B 4.3 03:35:47 45° ENE 03:35:47 45° ENE 03:40:02 10° N
NOSS 3-2 (A) 4.3 03:29:38 10° NNW 03:37:14 63° ENE 03:42:41 22° SE
RESURS DK-1 4.1 03:51:35 29° N 03:51:35 29° N 03:53:48 10° N
Resurs 1-4 Rocket 3.8 03:46:03 10° NE 03:50:09 22° E 03:51:14 21° ESE
IRAS Rocket 4.4 03:45:22 10° N 03:50:13 63° NNW 03:50:13 63° NNW
Cosmos 909 Rocket 4.0 03:53:20 68° WNW 03:53:34 69° WNW 04:00:26 10° NNE
GP-B 4.2 03:49:20 10° NNE 03:52:45 42° NE 03:52:45 42° NE
Meteor 1-20 Rocket 4.4 03:54:04 69° ESE 03:54:12 69° E 04:00:00 10° NNE
Cosmos 1867 4.4 03:49:06 10° NNW 03:54:21 46° ENE 03:56:28 31° ESE
Cosmos 1339 Rocket 4.3 03:52:11 10° N 03:58:11 81° WNW 03:58:11 81° WNW
Hubble Space Telescope 3.6 04:06:40 10° ESE 04:06:40 10° ESE 04:06:43 10° ESE
AQUA 4.4 03:58:01 10° N 04:01:42 51° NNW 04:01:42 51° NNW
Cosmos 1812 4.3 03:59:42 10° N 04:02:23 34° NE 04:02:23 34° NE
NPP 4.1 04:02:41 10° N 04:07:24 49° NW 04:07:24 49° NW
ERS-2 4.2 04:09:57 10° N 04:11:34 22° NNW 04:11:34 22° NNW
Cosmos 1535 Rocket 4.4 04:15:36 64° S 04:16:37 86° E 04:22:51 10° N
Sakura Rocket 4.0 04:19:24 50° SE 04:19:24 50° SE 04:24:41 10° ESE
NOSS 2-2 (E) 4.5 04:19:17 39° E 04:19:17 39° E 04:22:59 10° NE
ADEOS 3.5 04:15:51 10° N 04:21:02 68° WNW 04:21:03 68° WNW
Cosmos 967 Rocket 4.4 04:22:46 61° SW 04:23:55 78° WNW 04:30:25 10° NNE
CZ-4C R/B 2.9 04:16:40 10° NW 04:23:56 58° WSW 04:25:38 49° SSW
USA 161 4.3 04:28:06 15° N 04:28:06 15° N 04:28:45 10° N
Cosmos 1809 Rocket 4.3 04:25:40 60° SSW 04:26:54 86° W 04:33:03 10° N
OTV 4 3.1 04:28:38 20° NNE 04:28:38 20° NNE 04:30:25 10° ENE
Cosmos 1452 Rocket 3.3 04:28:29 76° SW 04:28:51 83° WNW 04:34:08 10° NNE
Cosmos 1844 4.0 04:27:35 46° SSE 04:28:54 58° ESE 04:34:29 10° NNE
Cosmos 1844 Rocket 2.6 04:29:44 63° S 04:30:42 86° ESE 04:36:23 10° NNE
Cosmos 2263 Rocket 4.0 04:31:41 17° WNW 04:32:15 17° WNW 04:35:58 10° NNW
ARIANE 5 R/B 2.3 04:28:14 10° NNE 04:33:15 90° E 04:33:52 70° SSW
CZ-2D R/B 2.4 04:30:01 10° NNE 04:35:27 66° ESE 04:37:10 43° SSE
COSMOS 2406 3.5 04:31:34 10° NNW 04:37:19 67° ENE 04:42:25 13° SSE
Centaur AC-125 4.0 04:40:42 21° ESE 04:40:42 21° ESE 04:42:35 10° ESE
USA 234 3.3 04:38:24 40° S 04:40:14 51° SW 04:46:35 10° NW
Cosmos 1602 3.8 04:41:11 75° NE 04:41:11 75° NE 04:44:48 10° N
Meteor 2-21 4.4 04:39:41 52° SW 04:40:58 65° W 04:47:00 10° N
Skynet4D Del rocket 3.7 04:41:19 50° S 04:41:24 50° S 04:46:49 10° E
Cosmos 1420 Rocket 4.3 04:41:24 43° SSE 04:43:00 64° ESE 04:48:15 10° NNE
Cosmos 1536 3.3 04:43:07 51° SE 04:43:43 57° E 04:47:43 10° NNE
Meteor 2-16 Rocket 4.4 04:42:03 40° S 04:44:26 86° E 04:50:37 10° N
Cosmos 2278 Rocket 2.8 04:42:22 32° SSE 04:44:39 51° ESE 04:50:08 10° NNE
NOSS 3-2 (C) 4.3 04:55:11 10° NW 05:02:30 46° WSW 05:09:00 15° S
SL-16 R/B 2.4 04:57:55 18° S 05:02:41 80° WSW 05:08:56 10° NNW
Cosmos 1934 Rocket 4.3 05:00:41 37° SW 05:02:45 50° W 05:08:46 10° N
Gbstr 26 Del rocket 3.5 05:03:17 35° WNW 05:03:57 38° NW 05:07:30 10° NNE
Cosmos 1190 Rocket 4.3 04:59:14 10° NNW 05:04:07 42° WSW 05:04:43 40° WSW
Meteor 2-4 Rocket 4.4 04:59:17 10° N 05:04:31 51° E 05:09:41 10° SSE
UNKNOWN OBJECT B 2.8 05:00:45 10° N 05:04:50 82° WNW 05:05:51 50° SSW
CZ-4B R/B 4.2 05:00:28 10° NNE 05:05:52 45° E 05:10:46 12° S
CENTAUR R/B 3.8 05:00:12 10° NNW 05:08:04 57° ENE 05:16:12 10° SE
Okean 1-7 Rocket 4.1 05:04:34 10° NNW 05:08:48 39° W 05:09:10 38° WSW
MOS 1-B 4.5 05:09:15 10° N 05:14:57 60° WNW 05:17:52 29° SW
OAO 2 Rocket 3.3 05:13:05 19° W 05:16:40 62° SSW 05:21:39 10° SE
Cosmos 1140 Rocket 3.8 05:13:53 10° N 05:18:59 67° ENE 05:24:04 10° SSE
EO 1 Del DPAF 3.6 05:19:35 40° WSW 05:20:02 41° W 05:23:45 10° NNW
Okean O Rocket 1.6 05:16:42 10° NNE 05:21:03 80° ESE 05:23:39 24° S
Meteor 1-19 Rocket 4.2 05:16:03 10° NNW 05:21:50 73° W 05:27:22 11° S
SL-27 R/B 3.3 05:19:24 10° NW 05:22:24 33° W 05:22:24 33° W
Cosmos 407 Rocket 4.1 05:18:08 10° NW 05:22:46 34° W 05:24:15 29° SW
Meteor 1-11 Rocket 4.5 05:22:23 27° WSW 05:24:46 38° WNW 05:30:17 10° N
Cosmos 489 Rocket 4.5 05:19:27 10° NNW 05:25:36 61° WSW 05:31:40 10° S
Cosmos 676 Rocket 4.3 05:22:14 10° NNW 05:27:08 44° WSW 05:30:20 20° SSW
NOSS 2-2 (D) 4.3 05:26:42 27° W 05:28:11 36° NW 05:32:20 10° NNE
Resurs 1-4 Rocket 2.9 05:25:14 10° N 05:29:58 34° WNW 05:32:18 23° WSW
Cosmos 1605 Rocket 4.5 05:27:55 25° SW 05:31:01 41° W 05:36:51 10° N
Cosmos 1400 Rocket 3.0 05:29:57 32° SW 05:31:17 47° W 05:35:03 10° N
Tiangong 1 2.6 05:31:16 10° NW 05:34:09 36° NNE 05:37:01 10° E
UNK 4.4 05:33:10 26° SW 05:34:54 34° W 05:39:07 10° NNW
IRS-1C Rocket 4.1 05:30:05 10° N 05:35:18 65° WNW 05:39:04 19° SSW
MOZ.5/SAFIR/RUBIN 5/SL-8 4.4 05:31:19 10° SSE 05:35:59 58° ENE 05:40:42 10° N
Cosmos 1633 3.6 05:35:52 25° W 05:36:30 27° W 05:39:37 10° NNW
CZ-4B R/B 3.3 05:33:21 10° NNE 05:37:55 75° ESE 05:42:04 12° S
ASTRO F (AKARI) 4.2 05:38:06 10° SSE 05:41:20 85° W 05:44:44 10° NNW
Hubble Space Telescope 1.6 05:42:06 24° WSW 05:43:39 31° SSW 05:47:21 10° SE
Cosmos 2016 Rocket 4.5 05:38:05 10° S 05:44:19 63° E 05:50:32 10° NNE
Delta 2 Rocket 4.2 05:40:14 15° W 05:45:24 47° SSW 05:51:08 10° ESE
Cosmos 1455 Rocket 3.4 05:44:23 19° SSW 05:47:16 47° W 05:51:35 10° N
CZ-2D R/B 4.4 05:45:01 10° NNW 05:48:31 30° WNW 05:50:36 19° WSW
ASC 2 Rocket 3.9 05:50:30 19° SW 05:52:42 30° S 05:56:17 10° ESE
Cosmos 1626 Rocket 4.3 05:48:41 10° N 05:52:58 56° E 05:57:17 10° SSE
Okean 2 3.5 05:49:53 10° NNW 05:53:53 53° W 05:57:52 10° S
Cosmos 1315 Rocket 3.3 05:51:29 17° SSW 05:54:21 44° W 05:58:17 10° N
Meteor 1-12 Rocket 4.4 05:49:50 10° S 05:55:47 89° W 06:01:39 10° N
USA 129 3.4 05:56:33 19° W 05:56:33 19° W 05:57:50 10° NW
Cosmos 1461 4.2 05:55:00 16° WSW 05:58:08 32° WNW 06:02:21 10° N
Yuri Rocket 3.1 05:53:59 13° W 05:58:33 66° S 06:02:45 10° E
ADEOS II 3.2 05:54:47 10° NNE 05:59:49 45° E 06:04:50 10° S
SME Rocket 4.3 05:58:56 16° SW 06:00:20 19° W 06:03:03 10° NW
OTV 4 0.6 06:01:45 10° WNW 06:04:41 71° NNE 06:07:36 10° ESE
PSLV R/B 3.8 06:00:59 10° NNE 06:05:11 68° E 06:09:22 10° S
COSMOS 2487 3.1 06:02:35 10° NNW 06:05:57 37° WSW 06:09:17 10° S
Cosmos 1975 2.8 06:02:08 10° S 06:06:07 73° W 06:10:07 10° N
CSL-04 DEB 4.4 06:03:14 10° N 06:07:25 74° WNW 06:11:30 10° SSW
Cosmos 1802 Rocket 4.0 06:02:05 10° SSW 06:08:12 66° W 06:14:18 10° N
Cosmos 2173 Rocket 4.1 06:04:01 10° SSW 06:09:56 54° W 06:15:54 10° N
Thor Agena Rocket 3.6 06:05:22 10° S 06:10:31 60° WSW 06:15:37 10° NNW
CZ-2D R/B 4.1 06:12:33 10° NW 06:14:54 13° WNW 06:17:14 10° W
Cosmos 1110 Rocket 4.3 06:13:15 10° SSW 06:18:24 51° WNW 06:23:34 10° N
Cosmos 1346 Rocket 3.6 06:16:45 10° N 06:20:45 58° E 06:24:41 10° SSE
Cosmos 2297 4.3 06:18:45 10° SW 06:23:59 40° WNW 06:29:18 10° N
Cosmos 614 Rocket 4.4 06:19:37 10° NNW 06:24:25 41° W 06:29:11 10° S
ARGOS Delta rocket 4.2 06:20:31 10° N 06:25:57 72° WNW 06:31:24 10° SSW
Cosmos 2278 Rocket 3.9 06:25:16 10° W 06:28:59 18° WNW 06:32:44 10° NNW
CZ-3 Stage 3 3.4 06:38:38 10° WSW 07:03:29 79° S 07:08:07 10° E
